| time (UTC) | temp F | wind direction | speed knots | gust knots | rain 1hr in | rain 24hr in | rain mn in | humidity % | barometer mb |
| 20260506235016 | 63 | 64 | 0.9 | 4.3 | 0.00 | 0.01 | 0.01 | 81 | 1012.4 |
| 20260506234516 | 63 | 12 | 0.9 | 4.3 | 0.00 | 0.01 | 0.01 | 81 | 1012.5 |
| 20260506234020 | 63 | 66 | 0.9 | 2.6 | 0.00 | 0.01 | 0.01 | 81 | 1012.2 |
| 20260506233516 | 63 | 34 | 0.9 | 4.3 | 0.00 | 0.01 | 0.01 | 81 | 1012.1 |
| 20260506233016 | 63 | 44 | 1.7 | 4.3 | 0.00 | 0.01 | 0.01 | 80 | 1012.2 |
| 20260506232515 | 63 | 15 | 0.9 | 3.5 | 0.00 | 0.01 | 0.01 | 80 | 1012.2 |
| 20260506232019 | 63 | 60 | 0.9 | 3.5 | 0.00 | 0.01 | 0.01 | 80 | 1012.2 |
| 20260506231520 | 63 | 18 | 0.9 | 4.3 | 0.00 | 0.01 | 0.01 | 79 | 1012.1 |
| 20260506231016 | 63 | 16 | 0.9 | 3.5 | 0.00 | 0.01 | 0.01 | 80 | 1012.1 |
| 20260506230516 | 63 | 77 | 0.9 | 4.3 | 0.00 | 0.01 | 0.01 | 79 | 1012.0 |
| 20260506230016 | 63 | 10 | 0.9 | 3.5 | 0.00 | 0.01 | 0.01 | 79 | 1012.2 |
| 20260506225516 | 63 | 62 | 0.9 | 2.6 | 0.00 | 0.01 | 0.01 | 80 | 1012.1 |
| 20260506225019 | 63 | 67 | 0.9 | 3.5 | 0.00 | 0.01 | 0.01 | 80 | 1012.1 |
| 20260506224521 | 63 | 50 | 0.9 | 4.3 | 0.00 | 0.01 | 0.01 | 80 | 1012.2 |
| 20260506224017 | 63 | 42 | 0.9 | 4.3 | 0.00 | 0.01 | 0.01 | 79 | 1012.1 |
| 20260506223519 | 63 | 66 | 0.9 | 6.1 | 0.00 | 0.01 | 0.01 | 79 | 1012.1 |
| 20260506223017 | 64 | 45 | 1.7 | 5.2 | 0.00 | 0.01 | 0.01 | 78 | 1012.0 |
| 20260506222516 | 64 | 73 | 0.9 | 3.5 | 0.00 | 0.01 | 0.01 | 78 | 1012.0 |
| 20260506222021 | 63 | 55 | 0.9 | 3.5 | 0.00 | 0.01 | 0.01 | 79 | 1012.0 |
| 20260506221520 | 63 | 48 | 0.9 | 3.5 | 0.00 | 0.01 | 0.01 | 79 | 1012.1 |
| 20260506221021 | 64 | 47 | 1.7 | 4.3 | 0.00 | 0.01 | 0.01 | 78 | 1012.1 |
| 20260506220517 | 64 | 39 | 1.7 | 4.3 | 0.00 | 0.01 | 0.01 | 78 | 1012.2 |
| 20260506220020 | 64 | 55 | 1.7 | 4.3 | 0.00 | 0.01 | 0.01 | 78 | 1012.1 |
| 20260506215517 | 64 | 36 | 1.7 | 6.1 | 0.00 | 0.01 | 0.01 | 77 | 1012.0 |
| 20260506215020 | 64 | 36 | 1.7 | 5.2 | 0.00 | 0.01 | 0.01 | 77 | 1011.9 |
| 20260506214520 | 64 | 50 | 1.7 | 5.2 | 0.00 | 0.01 | 0.01 | 77 | 1011.9 |
| 20260506214017 | 65 | 43 | 2.6 | 7.0 | 0.00 | 0.01 | 0.01 | 77 | 1011.8 |
| 20260506213518 | 65 | 46 | 1.7 | 5.2 | 0.00 | 0.01 | 0.01 | 76 | 1011.8 |
| 20260506213018 | 65 | 49 | 1.7 | 4.3 | 0.00 | 0.01 | 0.01 | 76 | 1011.8 |
| 20260506212522 | 66 | 48 | 1.7 | 5.2 | 0.00 | 0.01 | 0.01 | 76 | 1011.9 |
| 20260506212021 | 67 | 20 | 1.7 | 6.1 | 0.00 | 0.01 | 0.01 | 74 | 1011.9 |
| 20260506211517 | 67 | 33 | 1.7 | 6.1 | 0.00 | 0.01 | 0.01 | 73 | 1012.0 |
| 20260506211021 | 67 | 32 | 1.7 | 7.0 | 0.00 | 0.01 | 0.01 | 73 | 1012.0 |
| 20260506210515 | 67 | 65 | 1.7 | 5.2 | 0.00 | 0.01 | 0.01 | 73 | 1012.1 |
| 20260506210015 | 67 | 67 | 1.7 | 5.2 | 0.00 | 0.01 | 0.01 | 75 | 1012.2 |
| 20260506205518 | 67 | 28 | 2.6 | 5.2 | 0.00 | 0.01 | 0.01 | 74 | 1012.2 |
| 20260506205018 | 68 | 95 | 1.7 | 3.5 | 0.00 | 0.01 | 0.01 | 73 | 1012.3 |
| 20260506204518 | 68 | 76 | 1.7 | 5.2 | 0.00 | 0.01 | 0.01 | 72 | 1012.3 |
| 20260506204021 | 68 | 64 | 1.7 | 5.2 | 0.00 | 0.01 | 0.01 | 73 | 1012.4 |
| 20260506203519 | 69 | 45 | 1.7 | 6.1 | 0.00 | 0.01 | 0.01 | 72 | 1012.3 |
| 20260506203019 | 69 | 23 | 1.7 | 5.2 | 0.00 | 0.01 | 0.01 | 72 | 1012.3 |
| 20260506202516 | 69 | 59 | 1.7 | 7.8 | 0.00 | 0.01 | 0.01 | 73 | 1012.2 |
| 20260506202016 | 69 | 39 | 2.6 | 7.0 | 0.00 | 0.01 | 0.01 | 74 | 1012.1 |
| 20260506201518 | 69 | 56 | 1.7 | 6.1 | 0.00 | 0.01 | 0.01 | 75 | 1012.1 |
| 20260506201020 | 69 | 52 | 2.6 | 6.1 | 0.00 | 0.01 | 0.01 | 74 | 1012.0 |
| 20260506200519 | 69 | 45 | 1.7 | 7.0 | 0.00 | 0.01 | 0.01 | 75 | 1011.9 |
| 20260506200016 | 70 | 135 | 1.7 | 5.2 | 0.00 | 0.01 | 0.01 | 75 | 1011.9 |
| 20260506195519 | 70 | 57 | 1.7 | 6.1 | 0.00 | 0.01 | 0.01 | 74 | 1011.9 |
| 20260506195016 | 71 | 120 | 1.7 | 6.1 | 0.00 | 0.01 | 0.01 | 73 | 1011.8 |
| 20260506194519 | 71 | 86 | 1.7 | 5.2 | 0.00 | 0.01 | 0.01 | 75 | 1011.7 |
| 20260506194016 | 71 | 45 | 1.7 | 6.1 | 0.00 | 0.01 | 0.01 | 75 | 1011.6 |
| 20260506193516 | 71 | 235 | 1.7 | 5.2 | 0.00 | 0.01 | 0.01 | 75 | 1011.7 |
| 20260506193016 | 72 | 14 | 1.7 | 5.2 | 0.00 | 0.01 | 0.01 | 74 | 1011.7 |
| 20260506192517 | 73 | 358 | 1.7 | 5.2 | 0.00 | 0.01 | 0.01 | 73 | 1011.7 |
| 20260506192016 | 74 | 213 | 1.7 | 6.1 | 0.00 | 0.01 | 0.01 | 72 | 1011.6 |
| 20260506191517 | 75 | 251 | 1.7 | 5.2 | 0.00 | 0.01 | 0.01 | 72 | 1011.6 |
| 20260506191021 | 75 | 61 | 0.9 | 3.5 | 0.00 | 0.01 | 0.01 | 74 | 1011.7 |
| 20260506190520 | 75 | 127 | 0.9 | 2.6 | 0.00 | 0.01 | 0.01 | 74 | 1011.9 |
| 20260506190018 | 76 | 99 | 0.9 | 3.5 | 0.00 | 0.01 | 0.01 | 73 | 1011.9 |
| 20260506185520 | 76 | 359 | 0.9 | 3.5 | 0.00 | 0.01 | 0.01 | 73 | 1011.8 |
| 20260506185016 | 76 | 25 | 0.9 | 4.3 | 0.00 | 0.01 | 0.01 | 72 | 1011.8 |
| 20260506184517 | 77 | 37 | 1.7 | 5.2 | 0.00 | 0.01 | 0.01 | 71 | 1011.6 |
| 20260506184017 | 77 | 18 | 1.7 | 4.3 | 0.00 | 0.01 | 0.01 | 70 | 1011.6 |
| 20260506183517 | 77 | 66 | 0.9 | 3.5 | 0.00 | 0.01 | 0.01 | 71 | 1011.6 |
| 20260506183017 | 77 | 24 | 1.7 | 6.1 | 0.00 | 0.01 | 0.01 | 70 | 1011.6 |
| 20260506182520 | 77 | 26 | 0.9 | 4.3 | 0.00 | 0.01 | 0.01 | 70 | 1011.6 |
| 20260506182020 | 77 | 20 | 0.9 | 3.5 | 0.00 | 0.01 | 0.01 | 70 | 1011.5 |
| 20260506181521 | 77 | 305 | 0.9 | 5.2 | 0.00 | 0.01 | 0.01 | 70 | 1011.6 |
| 20260506181018 | 77 | 331 | 0.9 | 4.3 | 0.00 | 0.01 | 0.01 | 70 | 1011.6 |
| 20260506180520 | 76 | 183 | 0.9 | 2.6 | 0.00 | 0.01 | 0.01 | 70 | 1011.5 |
| 20260506180020 | 75 | 128 | 0.9 | 3.5 | 0.00 | 0.01 | 0.01 | 72 | 1011.5 |
| 20260506175518 | 75 | 113 | 0.9 | 2.6 | 0.00 | 0.01 | 0.01 | 72 | 1011.4 |
| 20260506175020 | 74 | 37 | 0.9 | 5.2 | 0.00 | 0.01 | 0.01 | 73 | 1011.4 |
| 20260506174517 | 74 | 29 | 0.9 | 4.3 | 0.00 | 0.01 | 0.01 | 73 | 1011.3 |
| 20260506174020 | 74 | 26 | 0.9 | 3.5 | 0.00 | 0.01 | 0.01 | 73 | 1011.2 |
| 20260506173518 | 73 | 77 | 0.9 | 2.6 | 0.00 | 0.01 | 0.01 | 73 | 1011.3 |
| 20260506173020 | 73 | 43 | 0.9 | 3.5 | 0.00 | 0.01 | 0.01 | 74 | 1011.4 |
| 20260506172515 | 72 | 49 | 0.9 | 4.3 | 0.00 | 0.01 | 0.01 | 75 | 1011.5 |
| 20260506172016 | 72 | 52 | 0.9 | 3.5 | 0.00 | 0.01 | 0.01 | 75 | 1011.6 |
| 20260506171515 | 72 | 59 | 0.9 | 4.3 | 0.00 | 0.01 | 0.01 | 76 | 1011.5 |
| 20260506171018 | 71 | 134 | 1.7 | 5.2 | 0.00 | 0.01 | 0.01 | 76 | 1011.4 |
| 20260506170518 | 71 | 155 | 0.9 | 4.3 | 0.00 | 0.01 | 0.01 | 77 | 1011.5 |
| 20260506170019 | 71 | 50 | 1.7 | 5.2 | 0.00 | 0.01 | 0.01 | 78 | 1011.5 |
| 20260506165516 | 70 | 71 | 0.9 | 4.3 | 0.00 | 0.01 | 0.01 | 80 | 1011.5 |
| 20260506165018 | 69 | 92 | 0.9 | 3.5 | 0.00 | 0.01 | 0.01 | 80 | 1011.8 |
| 20260506164519 | 67 | 59 | 0.9 | 3.5 | 0.00 | 0.01 | 0.01 | 83 | 1012.1 |
| 20260506164015 | 66 | 82 | 0.9 | 3.5 | 0.01 | 0.01 | 0.01 | 85 | 1012.1 |
| 20260506163516 | 65 | 11 | 1.7 | 4.3 | 0.01 | 0.01 | 0.01 | 87 | 1012.2 |
| 20260506163019 | 64 | 31 | 1.7 | 6.1 | 0.01 | 0.01 | 0.01 | 90 | 1012.2 |
| 20260506162533 | 63 | 46 | 0.9 | 3.5 | 0.01 | 0.01 | 0.01 | 92 | 1012.4 |
| 20260506162028 | 63 | 85 | 0.9 | 2.6 | 0.01 | 0.01 | 0.01 | 93 | 1012.8 |
| 20260506161528 | 63 | 51 | 0.9 | 2.6 | 0.01 | 0.01 | 0.01 | 93 | 1013.2 |
| 20260506161031 | 63 | 33 | 0.9 | 3.5 | 0.01 | 0.01 | 0.01 | 93 | 1013.1 |
| 20260506160516 | 63 | 33 | 1.7 | 5.2 | 0.01 | 0.01 | 0.01 | 93 | 1013.2 |
| 20260506160020 | 64 | 43 | 2.6 | 5.2 | 0.01 | 0.01 | 0.01 | 92 | 1013.1 |
| 20260506155533 | 64 | 45 | 1.7 | 3.5 | 0.01 | 0.01 | 0.01 | 92 | 1013.1 |
| 20260506155017 | 65 | 35 | 1.7 | 4.3 | 0.01 | 0.01 | 0.01 | 91 | 1013.1 |
| 20260506154529 | 66 | 283 | 1.7 | 3.5 | 0.01 | 0.01 | 0.01 | 90 | 1012.7 |
| 20260506154031 | 67 | 14 | 1.7 | 3.5 | 0.00 | 0.01 | 0.00 | 89 | 1012.6 |
| 20260506153529 | 67 | 54 | 1.7 | 3.5 | 0.00 | 0.01 | 0.00 | 89 | 1012.7 |
| 20260506153031 | 68 | 51 | 1.7 | 4.3 | 0.00 | 0.01 | 0.00 | 89 | 1012.5 |
| 20260506152529 | 69 | 85 | 1.7 | 4.3 | 0.00 | 0.01 | 0.00 | 88 | 1012.3 |
| 20260506152032 | 71 | 254 | 1.7 | 3.5 | 0.00 | 0.01 | 0.00 | 86 | 1012.0 |
| 20260506151529 | 73 | 57 | 0.9 | 2.6 | 0.00 | 0.01 | 0.00 | 84 | 1011.9 |
| 20260506151029 | 76 | 200 | 1.7 | 4.3 | 0.00 | 0.01 | 0.00 | 81 | 1011.8 |
| 20260506150532 | 78 | 245 | 0.9 | 3.5 | 0.00 | 0.01 | 0.00 | 84 | 1011.3 |
| 20260506150033 | 78 | 0.0 | 0.0 | 0.00 | 0.01 | 0.00 | 84 | 1011.2 | |
| 20260506145529 | 78 | 148 | 0.0 | 0.9 | 0.00 | 0.01 | 0.00 | 85 | 1010.8 |
| 20260506145032 | 78 | 151 | 0.0 | 0.9 | 0.00 | 0.01 | 0.00 | 85 | 1010.7 |
| 20260506144529 | 78 | 166 | 0.0 | 0.9 | 0.00 | 0.01 | 0.00 | 85 | 1010.5 |
| 20260506144029 | 79 | 152 | 0.0 | 0.9 | 0.00 | 0.01 | 0.00 | 84 | 1010.3 |
| 20260506143529 | 79 | 138 | 0.9 | 1.7 | 0.00 | 0.01 | 0.00 | 84 | 1010.3 |
| 20260506143035 | 79 | 148 | 0.0 | 0.9 | 0.00 | 0.01 | 0.00 | 84 | 1010.2 |
| 20260506142532 | 78 | 129 | 0.0 | 1.7 | 0.00 | 0.01 | 0.00 | 84 | 1010.1 |
| 20260506142029 | 78 | 212 | 0.0 | 1.7 | 0.00 | 0.01 | 0.00 | 85 | 1009.9 |
| 20260506141532 | 77 | 154 | 0.0 | 0.9 | 0.00 | 0.01 | 0.00 | 86 | 1009.8 |
| 20260506141032 | 77 | 177 | 0.0 | 0.9 | 0.00 | 0.01 | 0.00 | 87 | 1009.9 |
| 20260506140529 | 77 | 196 | 0.0 | 0.9 | 0.00 | 0.01 | 0.00 | 87 | 1010.2 |
| 20260506140030 | 77 | 152 | 0.0 | 0.9 | 0.00 | 0.01 | 0.00 | 87 | 1010.3 |
| 20260506135530 | 77 | 173 | 0.0 | 0.9 | 0.00 | 0.01 | 0.00 | 87 | 1010.3 |
| 20260506135019 | 77 | 172 | 0.0 | 0.9 | 0.00 | 0.01 | 0.00 | 88 | 1009.9 |
| 20260506134533 | 76 | 145 | 0.0 | 0.9 | 0.00 | 0.01 | 0.00 | 88 | 1009.7 |
| 20260506134030 | 76 | 114 | 0.0 | 1.7 | 0.00 | 0.01 | 0.00 | 89 | 1009.7 |
| 20260506133530 | 76 | 0.0 | 0.0 | 0.00 | 0.01 | 0.00 | 90 | 1009.8 | |
| 20260506133015 | 76 | 153 | 0.0 | 0.9 | 0.00 | 0.01 | 0.00 | 90 | 1009.7 |
| 20260506132520 | 75 | 119 | 0.0 | 0.9 | 0.00 | 0.01 | 0.00 | 90 | 1009.7 |
| 20260506132015 | 75 | 118 | 0.0 | 0.9 | 0.00 | 0.01 | 0.00 | 91 | 1009.6 |
| 20260506131515 | 75 | 225 | 0.0 | 0.9 | 0.00 | 0.01 | 0.00 | 92 | 1009.5 |
| 20260506131019 | 75 | 176 | 0.0 | 1.7 | 0.00 | 0.01 | 0.00 | 92 | 1009.5 |
| 20260506130518 | 74 | 160 | 0.0 | 0.9 | 0.00 | 0.01 | 0.00 | 92 | 1009.5 |
| 20260506130016 | 74 | 0.0 | 0.0 | 0.00 | 0.01 | 0.00 | 93 | 1009.5 | |
| 20260506125516 | 74 | 134 | 0.0 | 0.9 | 0.00 | 0.01 | 0.00 | 93 | 1009.3 |
| 20260506125015 | 74 | 134 | 0.0 | 0.9 | 0.00 | 0.01 | 0.00 | 94 | 1009.3 |
| 20260506124520 | 73 | 157 | 0.0 | 0.9 | 0.00 | 0.01 | 0.00 | 94 | 1009.3 |
| 20260506124016 | 73 | 174 | 0.0 | 0.9 | 0.00 | 0.01 | 0.00 | 95 | 1009.2 |
| 20260506123516 | 73 | 158 | 0.0 | 0.9 | 0.00 | 0.01 | 0.00 | 95 | 1009.2 |
| 20260506123016 | 73 | 116 | 0.0 | 0.9 | 0.00 | 0.01 | 0.00 | 96 | 1009.1 |
| 20260506122516 | 73 | 175 | 0.0 | 0.9 | 0.00 | 0.01 | 0.00 | 96 | 1009.2 |
| 20260506122020 | 73 | 166 | 0.0 | 0.9 | 0.00 | 0.01 | 0.00 | 96 | 1009.2 |
| 20260506121516 | 73 | 0.0 | 0.0 | 0.00 | 0.01 | 0.00 | 95 | 1009.2 | |
| 20260506121019 | 73 | 192 | 0.0 | 0.0 | 0.00 | 0.01 | 0.00 | 95 | 1009.2 |
| 20260506120516 | 73 | 144 | 0.0 | 0.9 | 0.00 | 0.01 | 0.00 | 95 | 1009.3 |
| 20260506120021 | 73 | 102 | 0.0 | 0.0 | 0.00 | 0.01 | 0.00 | 94 | 1009.2 |
| 20260506115516 | 74 | 142 | 0.0 | 0.9 | 0.00 | 0.01 | 0.00 | 94 | 1009.1 |
| 20260506115020 | 74 | 161 | 0.0 | 0.9 | 0.00 | 0.01 | 0.00 | 94 | 1009.0 |
| 20260506114517 | 74 | 138 | 0.0 | 0.9 | 0.00 | 0.01 | 0.00 | 94 | 1009.1 |
| 20260506114020 | 74 | 130 | 0.0 | 0.9 | 0.00 | 0.01 | 0.00 | 94 | 1009.1 |
| 20260506113521 | 74 | 172 | 0.0 | 0.9 | 0.00 | 0.01 | 0.00 | 94 | 1009.2 |
| 20260506113018 | 74 | 133 | 0.0 | 1.7 | 0.00 | 0.01 | 0.00 | 94 | 1009.2 |
| 20260506112520 | 74 | 164 | 0.0 | 0.9 | 0.00 | 0.01 | 0.00 | 94 | 1009.2 |
| 20260506112017 | 74 | 359 | 0.0 | 0.9 | 0.00 | 0.01 | 0.00 | 95 | 1009.2 |
| 20260506111517 | 74 | 109 | 0.0 | 0.9 | 0.00 | 0.01 | 0.00 | 95 | 1009.2 |
| 20260506111017 | 74 | 138 | 0.0 | 0.9 | 0.00 | 0.01 | 0.00 | 95 | 1009.2 |
| 20260506110518 | 74 | 162 | 0.0 | 0.9 | 0.00 | 0.01 | 0.00 | 95 | 1009.1 |
| 20260506110018 | 74 | 196 | 0.0 | 0.0 | 0.00 | 0.01 | 0.00 | 95 | 1009.1 |
| 20260506105521 | 74 | 160 | 0.0 | 0.9 | 0.00 | 0.01 | 0.00 | 95 | 1009.1 |
| 20260506105018 | 74 | 127 | 0.0 | 0.9 | 0.00 | 0.01 | 0.00 | 95 | 1009.1 |
| 20260506104521 | 74 | 120 | 0.0 | 0.9 | 0.00 | 0.01 | 0.00 | 95 | 1009.1 |
| 20260506104021 | 74 | 147 | 0.0 | 0.9 | 0.00 | 0.01 | 0.00 | 95 | 1009.0 |
| 20260506103521 | 74 | 187 | 0.0 | 0.9 | 0.00 | 0.01 | 0.00 | 95 | 1008.9 |
| 20260506103018 | 74 | 0.0 | 0.0 | 0.00 | 0.01 | 0.00 | 95 | 1008.9 | |
| 20260506102521 | 74 | 179 | 0.0 | 0.0 | 0.00 | 0.01 | 0.00 | 94 | 1008.9 |
| 20260506102015 | 74 | 173 | 0.0 | 0.0 | 0.00 | 0.01 | 0.00 | 94 | 1008.9 |
| 20260506101516 | 74 | 155 | 0.0 | 0.9 | 0.00 | 0.01 | 0.00 | 94 | 1008.8 |
| 20260506101015 | 74 | 104 | 0.0 | 0.9 | 0.00 | 0.01 | 0.00 | 94 | 1008.8 |
| 20260506100518 | 74 | 153 | 0.0 | 0.0 | 0.00 | 0.01 | 0.00 | 93 | 1008.7 |
| 20260506100015 | 74 | 194 | 0.0 | 1.7 | 0.00 | 0.01 | 0.00 | 93 | 1008.6 |
| 20260506095519 | 74 | 205 | 0.0 | 1.7 | 0.00 | 0.01 | 0.00 | 92 | 1008.5 |
| 20260506095016 | 74 | 131 | 0.0 | 1.7 | 0.00 | 0.01 | 0.00 | 92 | 1008.4 |
| 20260506094516 | 74 | 129 | 0.0 | 1.7 | 0.00 | 0.01 | 0.00 | 92 | 1008.4 |
| 20260506094016 | 74 | 195 | 0.0 | 0.9 | 0.00 | 0.01 | 0.00 | 92 | 1008.3 |
| 20260506093516 | 74 | 237 | 0.9 | 2.6 | 0.00 | 0.01 | 0.00 | 92 | 1008.3 |
| 20260506093017 | 74 | 165 | 0.0 | 1.7 | 0.00 | 0.01 | 0.00 | 92 | 1008.3 |
| 20260506092519 | 74 | 141 | 0.0 | 1.7 | 0.00 | 0.01 | 0.00 | 92 | 1008.2 |
| 20260506092016 | 74 | 124 | 0.9 | 1.7 | 0.00 | 0.01 | 0.00 | 92 | 1008.1 |
| 20260506091516 | 74 | 143 | 0.9 | 2.6 | 0.00 | 0.01 | 0.00 | 92 | 1008.0 |
| 20260506091019 | 74 | 154 | 0.9 | 1.7 | 0.00 | 0.01 | 0.00 | 92 | 1007.9 |
| 20260506090517 | 74 | 138 | 0.0 | 1.7 | 0.00 | 0.01 | 0.00 | 92 | 1007.8 |
| 20260506090017 | 74 | 170 | 0.0 | 1.7 | 0.00 | 0.01 | 0.00 | 92 | 1007.8 |
| 20260506085521 | 74 | 153 | 0.0 | 1.7 | 0.00 | 0.01 | 0.00 | 92 | 1007.8 |
| 20260506085019 | 74 | 182 | 0.0 | 1.7 | 0.00 | 0.01 | 0.00 | 92 | 1007.9 |
| 20260506084517 | 74 | 125 | 0.0 | 1.7 | 0.00 | 0.01 | 0.00 | 92 | 1007.9 |
| 20260506084019 | 74 | 124 | 0.0 | 2.6 | 0.00 | 0.01 | 0.00 | 92 | 1007.9 |
| 20260506083521 | 74 | 166 | 0.0 | 2.6 | 0.00 | 0.01 | 0.00 | 92 | 1007.9 |
| 20260506083020 | 74 | 135 | 0.0 | 1.7 | 0.00 | 0.01 | 0.00 | 92 | 1007.8 |
| 20260506082517 | 74 | 227 | 0.9 | 3.5 | 0.00 | 0.01 | 0.00 | 92 | 1007.9 |
| 20260506082020 | 74 | 134 | 0.9 | 2.6 | 0.00 | 0.01 | 0.00 | 92 | 1007.8 |
| 20260506081517 | 74 | 217 | 0.9 | 3.5 | 0.00 | 0.01 | 0.00 | 91 | 1007.8 |
| 20260506081017 | 75 | 140 | 0.0 | 1.7 | 0.00 | 0.01 | 0.00 | 91 | 1007.9 |
| 20260506080517 | 75 | 139 | 0.0 | 1.7 | 0.00 | 0.01 | 0.00 | 91 | 1007.9 |
| 20260506073518 | 75 | 228 | 0.9 | 4.3 | 0.00 | 0.01 | 0.00 | 91 | 1008.2 |
| 20260506073018 | 75 | 161 | 0.9 | 1.7 | 0.00 | 0.01 | 0.00 | 90 | 1008.2 |
| 20260506072521 | 75 | 175 | 0.9 | 3.5 | 0.00 | 0.01 | 0.00 | 90 | 1008.2 |
| 20260506072021 | 75 | 167 | 0.9 | 3.5 | 0.00 | 0.01 | 0.00 | 90 | 1008.3 |
| 20260506071518 | 75 | 195 | 0.9 | 3.5 | 0.00 | 0.01 | 0.00 | 90 | 1008.3 |
| 20260506071018 | 75 | 170 | 0.9 | 3.5 | 0.00 | 0.01 | 0.00 | 90 | 1008.3 |
| 20260506070519 | 75 | 168 | 0.9 | 2.6 | 0.00 | 0.01 | 0.00 | 90 | 1008.3 |
| 20260506062516 | 75 | 150 | 0.9 | 2.6 | 0.00 | 0.01 | 0.00 | 90 | 1008.3 |
| 20260506062019 | 75 | 188 | 0.9 | 4.3 | 0.00 | 0.01 | 0.00 | 90 | 1008.3 |
| 20260506061519 | 75 | 203 | 0.9 | 2.6 | 0.00 | 0.01 | 0.00 | 90 | 1008.3 |
| 20260506061021 | 75 | 163 | 0.9 | 2.6 | 0.00 | 0.01 | 0.00 | 90 | 1008.2 |
| 20260506060516 | 75 | 137 | 0.9 | 2.6 | 0.00 | 0.01 | 0.00 | 91 | 1008.3 |
| 20260506051017 | 75 | 151 | 0.9 | 2.6 | 0.00 | 0.01 | 0.00 | 90 | 1008.3 |
| 20260506050517 | 75 | 133 | 0.9 | 2.6 | 0.00 | 0.01 | 0.00 | 90 | 1008.2 |
| 20260506045017 | 75 | 136 | 0.9 | 1.7 | 0.00 | 0.01 | 0.00 | 90 | 1008.3 |
| 20260506044521 | 75 | 122 | 0.9 | 3.5 | 0.00 | 0.01 | 0.00 | 90 | 1008.3 |
| 20260506044018 | 75 | 162 | 0.9 | 3.5 | 0.00 | 0.01 | 0.00 | 90 | 1008.2 |
| 20260506043518 | 75 | 167 | 0.9 | 3.5 | 0.00 | 0.01 | 0.00 | 90 | 1008.3 |
| 20260506043018 | 75 | 160 | 0.0 | 2.6 | 0.00 | 0.01 | 0.00 | 90 | 1008.3 |
| 20260506042518 | 76 | 157 | 0.9 | 1.7 | 0.00 | 0.01 | 0.00 | 89 | 1008.3 |
| 20260506042015 | 76 | 118 | 0.9 | 2.6 | 0.00 | 0.01 | 0.00 | 89 | 1008.1 |
| 20260506041515 | 76 | 158 | 0.9 | 2.6 | 0.00 | 0.01 | 0.00 | 89 | 1008.1 |
| 20260506041021 | 76 | 143 | 0.9 | 1.7 | 0.00 | 0.01 | 0.00 | 88 | 1008.1 |
| 20260506040519 | 76 | 132 | 0.9 | 2.6 | 0.00 | 0.01 | 0.00 | 88 | 1008.1 |
| 20260506040015 | 76 | 136 | 0.9 | 2.6 | 0.00 | 0.01 | 0.00 | 88 | 1008.0 |
| 20260506035515 | 76 | 193 | 0.9 | 2.6 | 0.00 | 0.01 | 0.00 | 88 | 1007.9 |
| 20260506035018 | 76 | 135 | 0.9 | 2.6 | 0.00 | 0.01 | 0.00 | 88 | 1007.7 |
| 20260506034515 | 76 | 151 | 0.9 | 1.7 | 0.00 | 0.01 | 0.00 | 87 | 1007.7 |
| 20260506034019 | 76 | 117 | 0.9 | 1.7 | 0.00 | 0.01 | 0.00 | 87 | 1007.7 |
| 20260506033518 | 76 | 139 | 0.9 | 1.7 | 0.00 | 0.01 | 0.00 | 87 | 1007.8 |
| 20260506033015 | 77 | 146 | 0.9 | 2.6 | 0.00 | 0.01 | 0.00 | 87 | 1007.7 |
| 20260506032516 | 77 | 147 | 0.9 | 3.5 | 0.00 | 0.01 | 0.00 | 86 | 1007.7 |
| 20260506032016 | 77 | 161 | 0.9 | 2.6 | 0.00 | 0.01 | 0.00 | 86 | 1007.6 |
| 20260506031516 | 77 | 158 | 0.9 | 3.5 | 0.00 | 0.01 | 0.00 | 86 | 1007.6 |
| 20260506031016 | 77 | 166 | 0.9 | 1.7 | 0.00 | 0.01 | 0.00 | 85 | 1007.6 |
| 20260506030519 | 77 | 158 | 0.9 | 1.7 | 0.00 | 0.01 | 0.00 | 85 | 1007.5 |
| 20260506030020 | 77 | 154 | 0.9 | 1.7 | 0.00 | 0.01 | 0.00 | 84 | 1007.4 |
| 20260506025516 | 78 | 151 | 0.9 | 3.5 | 0.00 | 0.01 | 0.00 | 84 | 1007.4 |
| 20260506025016 | 78 | 176 | 0.9 | 1.7 | 0.00 | 0.01 | 0.00 | 83 | 1007.3 |
| 20260506024517 | 78 | 184 | 0.0 | 1.7 | 0.00 | 0.01 | 0.00 | 83 | 1007.2 |
| 20260506024016 | 78 | 166 | 0.0 | 1.7 | 0.00 | 0.01 | 0.00 | 82 | 1007.1 |
| 20260506023516 | 78 | 170 | 0.0 | 0.9 | 0.00 | 0.01 | 0.00 | 82 | 1006.9 |
| 20260506023020 | 78 | 151 | 0.0 | 1.7 | 0.00 | 0.01 | 0.00 | 82 | 1006.8 |
| 20260506022516 | 78 | 156 | 0.0 | 0.9 | 0.00 | 0.01 | 0.00 | 81 | 1006.7 |
| 20260506022017 | 78 | 151 | 0.0 | 1.7 | 0.00 | 0.01 | 0.00 | 81 | 1006.6 |
| 20260506021517 | 78 | 119 | 0.0 | 0.9 | 0.00 | 0.01 | 0.00 | 81 | 1006.6 |
| 20260506021017 | 78 | 157 | 0.0 | 0.9 | 0.00 | 0.01 | 0.00 | 81 | 1006.5 |
| 20260506020517 | 78 | 111 | 0.0 | 2.6 | 0.00 | 0.01 | 0.00 | 81 | 1006.3 |
| 20260506020020 | 79 | 176 | 0.0 | 0.9 | 0.00 | 0.01 | 0.00 | 80 | 1006.2 |
| 20260506015517 | 79 | 153 | 0.0 | 1.7 | 0.00 | 0.01 | 0.00 | 80 | 1006.3 |
| 20260506015020 | 79 | 155 | 0.0 | 0.9 | 0.00 | 0.01 | 0.00 | 80 | 1006.3 |
| 20260506014517 | 79 | 133 | 0.0 | 0.9 | 0.00 | 0.01 | 0.00 | 80 | 1006.2 |
| 20260506014017 | 79 | 130 | 0.0 | 1.7 | 0.00 | 0.01 | 0.00 | 80 | 1006.1 |
| 20260506013520 | 79 | 170 | 0.0 | 0.9 | 0.00 | 0.01 | 0.00 | 80 | 1006.2 |
| 20260506013017 | 79 | 163 | 0.0 | 0.9 | 0.00 | 0.01 | 0.00 | 79 | 1006.2 |
| 20260506012517 | 79 | 132 | 0.0 | 1.7 | 0.00 | 0.01 | 0.00 | 79 | 1006.1 |
| 20260506012021 | 80 | 145 | 0.0 | 1.7 | 0.00 | 0.01 | 0.00 | 79 | 1006.1 |
| 20260506011521 | 80 | 150 | 0.0 | 0.9 | 0.00 | 0.01 | 0.00 | 78 | 1006.1 |
| 20260506011018 | 80 | 156 | 0.0 | 0.9 | 0.00 | 0.01 | 0.00 | 78 | 1006.2 |
| 20260506010521 | 80 | 99 | 0.0 | 0.9 | 0.00 | 0.01 | 0.00 | 78 | 1006.2 |
| 20260506010021 | 80 | 111 | 0.0 | 1.7 | 0.00 | 0.01 | 0.00 | 77 | 1006.2 |
| 20260506005518 | 81 | 170 | 0.0 | 0.9 | 0.00 | 0.01 | 0.00 | 77 | 1006.2 |
| 20260506005018 | 81 | 197 | 0.0 | 0.9 | 0.00 | 0.01 | 0.00 | 76 | 1006.2 |
| 20260506004518 | 81 | 136 | 0.0 | 1.7 | 0.00 | 0.01 | 0.00 | 76 | 1006.2 |
| 20260506004018 | 81 | 131 | 0.0 | 1.7 | 0.00 | 0.01 | 0.00 | 75 | 1006.2 |
| 20260506003518 | 81 | 178 | 0.0 | 0.9 | 0.00 | 0.01 | 0.00 | 75 | 1006.1 |
| 20260506003018 | 82 | 197 | 0.0 | 1.7 | 0.00 | 0.01 | 0.00 | 75 | 1006.2 |
| 20260506002518 | 82 | 150 | 0.0 | 0.9 | 0.00 | 0.01 | 0.00 | 74 | 1006.2 |
| 20260506002018 | 82 | 96 | 0.0 | 1.7 | 0.00 | 0.01 | 0.00 | 73 | 1006.2 |
| 20260506001516 | 82 | 136 | 0.0 | 0.9 | 0.00 | 0.01 | 0.00 | 73 | 1006.2 |
| 20260506001019 | 82 | 130 | 0.0 | 0.9 | 0.00 | 0.01 | 0.00 | 72 | 1006.1 |
| 20260506000519 | 82 | 187 | 0.0 | 0.9 | 0.00 | 0.01 | 0.00 | 72 | 1006.1 |
| 20260506000019 | 83 | 151 | 0.9 | 2.6 | 0.00 | 0.01 | 0.00 | 72 | 1006.0 |
| 20260505235516 | 83 | 227 | 0.0 | 1.7 | 0.00 | 0.01 | 0.01 | 72 | 1006.0 |